Courtland, AL

10:58 PM CDT on July 24, 2016 (GMT -0500)
Courtland

Weather History for K9A4 - February, 2013

Change the Weather History Date:

Monday, February 25, 2013

  Actual Average (KMSL) Record (KMSL)
Temperature  
Mean Temperature 48 °F 48 °F  
Max Temperature 60 °F 58 °F 79 °F (1930)
Min Temperature 35 °F 38 °F 10 °F (1967)
Degree Days  
Heating Degree Days 18 17  
Month to date heating degree days 505  
Since 1 July heating degree days 2485  
Cooling Degree Days 0 0  
Month to date cooling degree days 0  
Year to date cooling degree days 0  
Moisture  
Dew Point 37 °F    
Average Humidity 65    
Maximum Humidity 87    
Minimum Humidity 44    
Precipitation  
Precipitation 0.00 in 0.16 in 1.82 in (1931)
Month to date precipitation 4.15  
Year to date precipitation 8.76  
Snow  
Snow 0.00 in - - ()
Month to date snowfall  
Since 1 July snowfall  
Snow Depth -    
Sea Level Pressure  
Sea Level Pressure 29.81 in    
Wind  
Wind Speed 7 mph (ESE)    
Max Wind Speed 26 mph    
Max Gust Speed 34 mph    
Visibility 10 miles    
Events Rain    
T = Trace of Precipitation, MM = Missing Value Source: NWS Daily Summary

Daily Weather History Graph

Daily Weather History Graph

Search for Another Location

Airport or City:

Trip Planner

Search our weather history database for the weather conditions in past years. The results will help you decide how hot, cold, wet, or windy it might be!

Date:

Astronomy

Feb. 25, 2013 Rise Set
Actual Time 6:23 AM CST 5:42 PM CST
Civil Twilight 5:57 AM CST 6:07 PM CST
Nautical Twilight 5:28 AM CST 6:36 PM CST
Astronomical Twilight 4:59 AM CST 7:05 PM CST
Moon 5:52 PM CST 5:54 AM CST
Length of Visible Light 12h 09m
Length of Day
11h 18m
Full, 100% of the Moon is Illuminated
Feb 25
Full
Feb 25
Full
Mar 4
Last Quarter
Mar 11
New
Mar 19
First Quarter

Hourly Weather History & Observations

Time (CST) Temp. Windchill Dew Point Humidity Pressure Visibility Wind Dir Wind Speed Gust Speed Precip Events Conditions
12:15 AM 37.4 °F - 32.0 °F 81% 29.96 in 10.0 mi Calm Calm - N/A   Clear
12:35 AM 37.4 °F - 32.0 °F 81% 29.95 in 10.0 mi Calm Calm - N/A   Clear
12:55 AM 35.6 °F - 32.0 °F 87% 29.97 in 10.0 mi Calm Calm - N/A   Clear
1:15 AM 37.4 °F - 32.0 °F 81% 29.96 in 10.0 mi Calm Calm - N/A   Clear
1:35 AM 37.4 °F 34.9 °F 32.0 °F 81% 29.96 in 10.0 mi NE 3.5 mph - N/A   Clear
2:15 AM 37.4 °F - 32.0 °F 81% 29.95 in 10.0 mi Calm Calm - N/A   Clear
2:35 AM 41.0 °F 37.1 °F 30.2 °F 65% 29.93 in 10.0 mi ENE 5.8 mph - N/A   Clear
2:55 AM 41.0 °F 38.0 °F 30.2 °F 65% 29.93 in 10.0 mi NE 4.6 mph - N/A   Clear
3:15 AM 39.2 °F - 30.2 °F 70% 29.93 in 10.0 mi Calm Calm - N/A   Clear
3:35 AM 35.6 °F - 32.0 °F 87% 29.92 in 10.0 mi Calm Calm - N/A   Clear
3:55 AM 37.4 °F - 32.0 °F 81% 29.91 in 10.0 mi Calm Calm - N/A   Clear
4:15 AM 37.4 °F - 32.0 °F 81% 29.92 in 10.0 mi Calm Calm - N/A   Clear
4:35 AM 39.2 °F 34.2 °F 30.2 °F 70% 29.90 in 10.0 mi NNE 6.9 mph - N/A   Clear
4:55 AM 41.0 °F 39.0 °F 30.2 °F 65% 29.92 in 10.0 mi NE 3.5 mph - N/A   Clear
5:15 AM 41.0 °F 39.0 °F 32.0 °F 70% 29.93 in 10.0 mi East 3.5 mph - N/A   Clear
5:35 AM 41.0 °F 39.0 °F 32.0 °F 70% 29.93 in 10.0 mi ESE 3.5 mph - N/A   Clear
5:55 AM 41.0 °F 39.0 °F 30.2 °F 65% 29.93 in 10.0 mi East 3.5 mph - N/A   Clear
6:15 AM 41.0 °F 37.1 °F 30.2 °F 65% 29.93 in 10.0 mi ENE 5.8 mph - N/A   Clear
6:35 AM 41.0 °F 37.1 °F 30.2 °F 65% 29.93 in 10.0 mi ENE 5.8 mph - N/A   Clear
6:55 AM 41.0 °F 36.4 °F 30.2 °F 65% 29.92 in 10.0 mi East 6.9 mph - N/A   Clear
7:15 AM 41.0 °F 38.0 °F 30.2 °F 65% 29.92 in 10.0 mi East 4.6 mph - N/A   Clear
7:35 AM 41.0 °F 38.0 °F 30.2 °F 65% 29.93 in 10.0 mi East 4.6 mph - N/A   Mostly Cloudy
7:55 AM 42.8 °F 39.3 °F 32.0 °F 66% 29.94 in 10.0 mi East 5.8 mph - N/A   Overcast
8:15 AM 42.8 °F 38.6 °F 32.0 °F 66% 29.95 in 10.0 mi East 6.9 mph - N/A   Overcast
8:35 AM 44.6 °F 39.7 °F 32.0 °F 61% 29.93 in 10.0 mi East 9.2 mph - N/A   Overcast
8:55 AM 44.6 °F 40.7 °F 32.0 °F 61% 29.93 in 10.0 mi ESE 6.9 mph - N/A   Mostly Cloudy
9:15 AM 46.4 °F 41.5 °F 32.0 °F 57% 29.93 in 10.0 mi East 10.4 mph - N/A   Overcast
9:35 AM 46.4 °F 41.5 °F 32.0 °F 57% 29.91 in 10.0 mi ESE 10.4 mph - N/A   Overcast
9:55 AM 50.0 °F - 32.0 °F 50% 29.91 in 10.0 mi ESE 9.2 mph - N/A   Overcast
10:15 AM 51.8 °F - 30.2 °F 44% 29.90 in 10.0 mi ESE 12.7 mph - N/A   Overcast
10:35 AM 51.8 °F - 30.2 °F 44% 29.89 in 10.0 mi ESE 13.8 mph - N/A   Overcast
11:15 AM 53.6 °F - 32.0 °F 44% 29.88 in 10.0 mi ESE 16.1 mph 20.7 mph N/A   Overcast
11:35 AM 53.6 °F - 32.0 °F 44% 29.88 in 10.0 mi ESE 12.7 mph 17.3 mph N/A   Overcast
11:55 AM 55.4 °F - 33.8 °F 44% 29.87 in 10.0 mi ESE 12.7 mph - N/A   Overcast
12:15 PM 55.4 °F - 33.8 °F 44% 29.86 in 10.0 mi ESE 12.7 mph - N/A   Overcast
12:35 PM 55.4 °F - 35.6 °F 47% 29.85 in 10.0 mi ESE 12.7 mph 18.4 mph N/A   Overcast
12:55 PM 55.4 °F - 37.4 °F 51% 29.83 in 10.0 mi SE 16.1 mph - N/A   Overcast
1:15 PM 55.4 °F - 37.4 °F 51% 29.83 in 10.0 mi ESE 10.4 mph - N/A   Overcast
1:35 PM 55.4 °F - 39.2 °F 54% 29.82 in 10.0 mi ESE 11.5 mph - N/A   Overcast
1:55 PM 55.4 °F - 39.2 °F 54% - 10.0 mi North - - N/A   Overcast
2:15 PM 55.4 °F - 39.2 °F 54% - - North - - N/A   Unknown
2:35 PM 59.0 °F - 42.8 °F 55% 29.78 in 10.0 mi ESE 10.4 mph - N/A   Unknown
2:55 PM 59.0 °F - 42.8 °F 55% 29.77 in 10.0 mi SSE 16.1 mph - N/A   Mostly Cloudy
3:15 PM 60.8 °F - 44.6 °F 55% 29.76 in 10.0 mi SSE 17.3 mph 25.3 mph N/A   Mostly Cloudy
3:35 PM 59.0 °F - 44.6 °F 59% 29.74 in 10.0 mi ESE 20.7 mph 24.2 mph N/A   Overcast
3:55 PM 59.0 °F - 44.6 °F 59% 29.73 in 10.0 mi SE 19.6 mph 24.2 mph N/A   Overcast
4:15 PM 57.2 °F - 44.6 °F 63% 29.73 in 10.0 mi SE 16.1 mph 24.2 mph N/A   Overcast
4:35 PM 55.4 °F - 44.6 °F 67% 29.72 in 10.0 mi SE 18.4 mph 25.3 mph N/A   Overcast
4:55 PM 55.4 °F - 42.8 °F 63% 29.71 in 10.0 mi SE 20.7 mph 29.9 mph N/A   Overcast
5:15 PM 55.4 °F - 42.8 °F 63% 29.73 in 10.0 mi SE 18.4 mph 21.9 mph N/A   Overcast
5:35 PM 55.4 °F - 42.8 °F 63% 29.72 in 10.0 mi SE 15.0 mph 23.0 mph N/A   Overcast
5:55 PM 55.4 °F - 42.8 °F 63% 29.72 in 10.0 mi SE 17.3 mph 26.5 mph N/A   Overcast
6:15 PM 55.4 °F - 42.8 °F 63% 29.72 in 10.0 mi SE 11.5 mph - N/A   Overcast
6:35 PM 55.4 °F - 39.2 °F 54% 29.71 in 10.0 mi ESE 13.8 mph - N/A   Overcast
6:55 PM 53.6 °F - 39.2 °F 58% 29.71 in 10.0 mi ESE 10.4 mph - N/A   Overcast
7:15 PM 53.6 °F - 42.8 °F 67% 29.70 in 10.0 mi ESE 23.0 mph 26.5 mph N/A   Overcast
7:35 PM 53.6 °F - 42.8 °F 67% 29.69 in 10.0 mi SE 20.7 mph 25.3 mph N/A   Overcast
7:55 PM 53.6 °F - 42.8 °F 67% 29.67 in 10.0 mi SE 20.7 mph 28.8 mph N/A   Overcast
8:15 PM 53.6 °F - 42.8 °F 67% 29.65 in 10.0 mi ESE 18.4 mph 25.3 mph N/A   Overcast
8:35 PM 51.8 °F - 41.0 °F 67% 29.65 in 10.0 mi SE 20.7 mph 26.5 mph N/A   Overcast
8:55 PM 51.8 °F - 41.0 °F 67% 29.65 in 10.0 mi SE 18.4 mph 27.6 mph N/A   Overcast
9:15 PM 50.0 °F - 42.8 °F 76% 29.64 in 10.0 mi SE 17.3 mph 25.3 mph N/A Rain Light Rain
9:35 PM 50.0 °F - 42.8 °F 76% 29.60 in 10.0 mi SE 19.6 mph 26.5 mph N/A Rain Light Rain
9:55 PM 50.0 °F - 42.8 °F 76% 29.58 in 10.0 mi SE 26.5 mph 31.1 mph N/A   Overcast
10:15 PM 50.0 °F - 42.8 °F 76% 29.58 in 10.0 mi SE 20.7 mph 33.4 mph N/A   Light Drizzle
10:35 PM 50.0 °F - 42.8 °F 76% 29.58 in 10.0 mi SE 13.8 mph 24.2 mph N/A   Overcast
10:55 PM 50.0 °F - 44.6 °F 82% 29.55 in 10.0 mi SE 17.3 mph 26.5 mph N/A   Overcast
11:15 PM 50.0 °F - 44.6 °F 82% 29.53 in 10.0 mi SE 20.7 mph 34.5 mph N/A   Overcast
11:35 PM 50.0 °F - 44.6 °F 82% 29.50 in 10.0 mi SE 25.3 mph 33.4 mph N/A   Overcast